Preview of NWS' New Version of Forecast
This preview is not operational and should not be used for support decisions.

Regional Weather Roundup (RWR)

Issued by National Weather Service (NWS)

                            
000
ASUS45 KABQ 162101
RWRNM 
NEW MEXICO REGIONAL WEATHER ROUNDUP
NATIONAL WEATHER SERVICE ALBUQUERQUE NM
200 PM MST SAT FEB 16 2019

NOTE: "FAIR" MEANS FEW OR NO CLOUDS BELOW 12,000 FEET AGL WITH NO
       SIGNIFICANT WEATHER OR OBSTRUCTIONS TO VISION.

      THIS PRODUCT IS RELEASED AS TWO VERSIONS.  ONE VERSION NEAR
      THE TOP OF THE HOUR CONTAINING PRELIMINARY DATA FROM ALBUQUERQUE
      AND OTHER STATIONS.  A FINAL VERSION WITH ADDITIONAL DATA IS 
      ISSUED ABOUT 10 MINUTES AFTER THE HOUR.
 
NMZ501-503-504-510>518-162200-
NORTHWEST PLATEAU/NORTHCENTRAL MOUNTAINS
  
CITY           SKY/WX    TMP DP  RH WIND       PRES   REMARKS
FARMINGTON     FAIR      38  19  46 W28G38    29.72F WCI  26          
LOS ALAMOS     PTSUNNY   36  11  36 W24G33    29.68S WCI  24          
SANTA FE       PTSUNNY   38  15  39 W20G31    29.67S WCI  28          
TAOS           FAIR      36  15  42 W38G46    29.61F WCI  22          
ANGEL FIRE       N/A     27  13  57 W26G39    29.57F WCI  11          

$$
NMZ402-403-502-505>509-162200-
WESTCENTRAL MOUNTAINS/SOUTHWEST MOUNTAINS
  
CITY           SKY/WX    TMP DP  RH WIND       PRES   REMARKS
GALLUP         CLOUDY    36  18  48 W23G30    29.80S WCI  24          
GRANTS         FAIR      38  20  49 W29G36    29.78F WCI  25          
SILVER CITY    PTSUNNY   48  28  45 W22G35    29.86F                  

$$
NMZ407-409-411-412-162200-
SOUTHERN DESERTS
  
CITY           SKY/WX    TMP DP  RH WIND       PRES   REMARKS
DEMING         FAIR      59  23  25 W29G39    29.81F                  
LAS CRUCES     FAIR      62  29  29 W31G44    29.79S                  
HOLLOMAN AFB   CLOUDY    62  18  18 W30G40    29.74F                  
ALAMOGORDO     FAIR      63  18  17 W26G40    29.74F                  
T OR C         FAIR      57  10  15 W26G39    29.73F                  

$$
NMZ519>523-162200-
CENTRAL VALLEYS/CENTRAL HIGHLANDS
  
CITY           SKY/WX    TMP DP  RH WIND       PRES   REMARKS
ALBUQUERQUE    PTSUNNY   46  21  37 NW21G26   29.72F                  
DOUBLE EAGLE   PTSUNNY   45  19  36 W28G35    29.74S                  
MORIARTY ARPT  PTSUNNY   46  18  33 W30G40    29.69S                  
CLINES CORNERS CLOUDY    39  17  41 W38G51    29.65S WCI  26          
BELEN          FAIR      48  19  31 W32G41    29.73R                  
SOCORRO        FAIR      57  12  16 W24G33    29.70S                  

$$
NMZ524>526-539-540-162200-
SOUTHCENTRAL MOUNTAINS
  
CITY           SKY/WX    TMP DP  RH WIND       PRES   REMARKS
RUIDOSO        NOT AVBL                                               

$$
NMZ527>531-162200-
NORTHEAST HIGHLANDS/NORTHEAST PLAINS
  
CITY           SKY/WX    TMP DP  RH WIND       PRES   REMARKS
LAS VEGAS      LGT RAIN  39  17  41 W30G39    29.57F WCI  27          
RATON          CLOUDY    43   8  23 W26G45    29.49F                  
CLAYTON        FAIR      54   9  16 W37G53    29.44F                  

$$
NMZ532>537-162200-
EASTCENTRAL PLAINS
  
CITY           SKY/WX    TMP DP  RH WIND       PRES   REMARKS
SANTA ROSA     FAIR      56  14  18 W26G36    29.59F                  
TUCUMCARI      FAIR      62  11  13 W45G54    29.51F                  
CANNON AFB     FAIR      63  18  17 W31G39    29.55F                  
CLOVIS AIRPORT FAIR      64  19  17 W29G40    29.55F                  

$$
NMZ028-029-538-162200-
SOUTHEAST PLAINS
  
CITY           SKY/WX    TMP DP  RH WIND       PRES   REMARKS
ROSWELL        CLOUDY    70  19  14 W33G41    29.57F HAZE             
ARTESIA        FAIR      70  19  14 W32G46    29.63F                  
CARLSBAD       FAIR      72  23  16 SW25G36   29.62F                  
HOBBS          SUNNY     72  12  10 SW37G52   29.63F                  


$$